Year,Month,Day,Hour,Minute,Value (Times are PST for temperature in C)
2020,04,23,00,00,6.80
2020,04,23,00,01,6.80
2020,04,23,00,02,6.90
2020,04,23,00,03,6.90
2020,04,23,00,04,6.90
2020,04,23,00,05,6.90
2020,04,23,00,06,6.90
2020,04,23,00,07,6.90
2020,04,23,00,08,7.00
2020,04,23,00,09,7.00
2020,04,23,00,10,7.00
2020,04,23,00,11,7.00
2020,04,23,00,12,7.10
2020,04,23,00,13,7.10
2020,04,23,00,14,7.10
2020,04,23,00,15,7.10
2020,04,23,00,16,7.10
2020,04,23,00,17,7.10
2020,04,23,00,18,7.20
2020,04,23,00,19,7.20
2020,04,23,00,20,7.10
2020,04,23,00,21,7.10
2020,04,23,00,22,7.10
2020,04,23,00,23,7.10
2020,04,23,00,24,7.10
2020,04,23,00,25,7.10
2020,04,23,00,26,7.10
2020,04,23,00,27,7.20
2020,04,23,00,28,7.20
2020,04,23,00,29,7.20
2020,04,23,00,30,7.20
2020,04,23,00,31,7.20
2020,04,23,00,32,7.30
2020,04,23,00,33,7.30
2020,04,23,00,34,7.30
2020,04,23,00,35,7.30
2020,04,23,00,36,7.30
2020,04,23,00,37,7.30
2020,04,23,00,38,7.30
2020,04,23,00,39,7.30
2020,04,23,00,40,7.30
2020,04,23,00,41,7.30
2020,04,23,00,42,7.30
2020,04,23,00,43,7.30
2020,04,23,00,44,7.30
2020,04,23,00,45,7.30
2020,04,23,00,46,7.30
2020,04,23,00,47,7.30
2020,04,23,00,48,7.30
2020,04,23,00,49,7.30
2020,04,23,00,50,7.20
2020,04,23,00,51,7.20
2020,04,23,00,52,7.20
2020,04,23,00,53,7.20
2020,04,23,00,54,7.20
2020,04,23,00,55,7.20
2020,04,23,00,56,7.20
2020,04,23,00,57,7.20
2020,04,23,00,58,7.20
2020,04,23,00,59,7.10
2020,04,23,01,00,7.10
2020,04,23,01,01,7.10
2020,04,23,01,02,7.10
2020,04,23,01,03,7.10
2020,04,23,01,04,7.10
2020,04,23,01,05,7.10
2020,04,23,01,06,7.10
2020,04,23,01,07,7.10
2020,04,23,01,08,7.10
2020,04,23,01,09,7.10
2020,04,23,01,10,7.10
2020,04,23,01,11,7.10
2020,04,23,01,12,7.10
2020,04,23,01,13,7.10
2020,04,23,01,14,7.10
2020,04,23,01,15,7.10
2020,04,23,01,16,7.10
2020,04,23,01,17,7.20
2020,04,23,01,18,7.10
2020,04,23,01,19,7.20
2020,04,23,01,20,7.20
2020,04,23,01,21,7.10
2020,04,23,01,22,7.10
2020,04,23,01,23,7.10
2020,04,23,01,24,7.10
2020,04,23,01,25,7.10
2020,04,23,01,26,7.10
2020,04,23,01,27,7.10
2020,04,23,01,28,7.10
2020,04,23,01,29,7.10
2020,04,23,01,30,7.10
2020,04,23,01,31,7.10
2020,04,23,01,32,7.10
2020,04,23,01,33,7.10
2020,04,23,01,34,7.10
2020,04,23,01,35,7.10
2020,04,23,01,36,7.10
2020,04,23,01,37,7.10
2020,04,23,01,38,7.10
2020,04,23,01,39,7.10
2020,04,23,01,40,7.10
2020,04,23,01,41,7.10
2020,04,23,01,42,7.10
2020,04,23,01,43,7.10
2020,04,23,01,44,7.10
2020,04,23,01,45,7.20
2020,04,23,01,46,7.20
2020,04,23,01,47,7.20
2020,04,23,01,48,7.20
2020,04,23,01,49,7.20
2020,04,23,01,50,7.20
2020,04,23,01,51,7.20
2020,04,23,01,52,7.20
2020,04,23,01,53,7.30
2020,04,23,01,54,7.30
2020,04,23,01,55,7.30
2020,04,23,01,56,7.30
2020,04,23,01,57,7.30
2020,04,23,01,58,7.30
2020,04,23,01,59,7.30
2020,04,23,02,00,7.30
2020,04,23,02,01,7.30
2020,04,23,02,02,7.30
2020,04,23,02,03,7.30
2020,04,23,02,04,7.30
2020,04,23,02,05,7.30
2020,04,23,02,06,7.40
2020,04,23,02,07,7.30
2020,04,23,02,08,7.40
2020,04,23,02,09,7.40
2020,04,23,02,10,7.40
2020,04,23,02,11,7.40
2020,04,23,02,12,7.40
2020,04,23,02,13,7.40
2020,04,23,02,14,7.40
2020,04,23,02,15,7.40
2020,04,23,02,16,7.40
2020,04,23,02,17,7.40
2020,04,23,02,18,7.40
2020,04,23,02,19,7.40
2020,04,23,02,20,7.40
2020,04,23,02,21,7.40
2020,04,23,02,22,7.40
2020,04,23,02,23,7.40
2020,04,23,02,24,7.40
2020,04,23,02,25,7.40
2020,04,23,02,26,7.40
2020,04,23,02,27,7.40
2020,04,23,02,28,7.40
2020,04,23,02,29,7.40
2020,04,23,02,30,7.50
2020,04,23,02,31,7.50
2020,04,23,02,32,7.50
2020,04,23,02,33,7.50
2020,04,23,02,34,7.50
2020,04,23,02,35,7.50
2020,04,23,02,36,7.50
2020,04,23,02,37,7.50
2020,04,23,02,38,7.50
2020,04,23,02,39,7.50
2020,04,23,02,40,7.50
2020,04,23,02,41,7.50
2020,04,23,02,42,7.50
2020,04,23,02,43,7.50
2020,04,23,02,44,7.50
2020,04,23,02,45,7.50
2020,04,23,02,46,7.50
2020,04,23,02,47,7.50
2020,04,23,02,48,7.60
2020,04,23,02,49,7.60
2020,04,23,02,50,7.60
2020,04,23,02,51,7.60
2020,04,23,02,52,7.60
2020,04,23,02,53,7.60
2020,04,23,02,54,7.60
2020,04,23,02,55,7.60
2020,04,23,02,56,7.60
2020,04,23,02,57,7.60
2020,04,23,02,58,7.60
2020,04,23,02,59,7.60
2020,04,23,03,00,7.60
2020,04,23,03,01,7.60
2020,04,23,03,02,7.60
2020,04,23,03,03,7.60
2020,04,23,03,04,7.60
2020,04,23,03,05,7.60
2020,04,23,03,06,7.60
2020,04,23,03,07,7.60
2020,04,23,03,08,7.60
2020,04,23,03,09,7.60
2020,04,23,03,10,7.60
2020,04,23,03,11,7.60
2020,04,23,03,12,7.60
2020,04,23,03,13,7.60
2020,04,23,03,14,7.60
2020,04,23,03,15,7.60
2020,04,23,03,16,7.60
2020,04,23,03,17,7.60
2020,04,23,03,18,7.60
2020,04,23,03,19,7.60
2020,04,23,03,20,7.60
2020,04,23,03,21,7.60
2020,04,23,03,22,7.60
2020,04,23,03,23,7.60
2020,04,23,03,24,7.60
2020,04,23,03,25,7.60
2020,04,23,03,26,7.60
2020,04,23,03,27,7.60
2020,04,23,03,28,7.60
2020,04,23,03,29,7.60
2020,04,23,03,30,7.70
2020,04,23,03,31,7.70
2020,04,23,03,32,7.70
2020,04,23,03,33,7.70
2020,04,23,03,34,7.60
2020,04,23,03,35,7.60
2020,04,23,03,36,7.60
2020,04,23,03,37,7.60
2020,04,23,03,38,7.60
2020,04,23,03,39,7.60
2020,04,23,03,40,7.60
2020,04,23,03,41,7.60
2020,04,23,03,42,7.60
2020,04,23,03,43,7.60
2020,04,23,03,44,7.60
2020,04,23,03,45,7.60
2020,04,23,03,46,7.60
2020,04,23,03,47,7.60
2020,04,23,03,48,7.60
2020,04,23,03,49,7.60
2020,04,23,03,50,7.60
2020,04,23,03,51,7.60
2020,04,23,03,52,7.60
2020,04,23,03,53,7.60
2020,04,23,03,54,7.60
2020,04,23,03,55,7.60
2020,04,23,03,56,7.60
2020,04,23,03,57,7.60
2020,04,23,03,58,7.60
2020,04,23,03,59,7.60
2020,04,23,04,00,7.60
2020,04,23,04,01,7.60
2020,04,23,04,02,7.70
2020,04,23,04,03,7.70
2020,04,23,04,04,7.70
2020,04,23,04,05,7.70
2020,04,23,04,06,7.70
2020,04,23,04,07,7.70
2020,04,23,04,08,7.60
2020,04,23,04,09,7.60
2020,04,23,04,10,7.60
2020,04,23,04,11,7.60
2020,04,23,04,12,7.60
2020,04,23,04,13,7.60
2020,04,23,04,14,7.60
2020,04,23,04,15,7.60
2020,04,23,04,16,7.50
2020,04,23,04,17,7.50
2020,04,23,04,18,7.40
2020,04,23,04,19,7.40
2020,04,23,04,20,7.40
2020,04,23,04,21,7.40
2020,04,23,04,22,7.40
2020,04,23,04,23,7.40
2020,04,23,04,24,7.40
2020,04,23,04,25,7.40
2020,04,23,04,26,7.40
2020,04,23,04,27,7.40
2020,04,23,04,28,7.40
2020,04,23,04,29,7.40
2020,04,23,04,30,7.40
2020,04,23,04,31,7.40
2020,04,23,04,32,7.30
2020,04,23,04,33,7.30
2020,04,23,04,34,7.30
2020,04,23,04,35,7.30
2020,04,23,04,36,7.30
2020,04,23,04,37,7.30
2020,04,23,04,38,7.30
2020,04,23,04,39,7.30
2020,04,23,04,40,7.30
2020,04,23,04,41,7.30
2020,04,23,04,42,7.30
2020,04,23,04,43,7.30
2020,04,23,04,44,7.30
2020,04,23,04,45,7.30
2020,04,23,04,46,7.40
2020,04,23,04,47,7.30
2020,04,23,04,48,7.40
2020,04,23,04,49,7.40
2020,04,23,04,50,7.40
2020,04,23,04,51,7.30
2020,04,23,04,52,7.30
2020,04,23,04,53,7.30
2020,04,23,04,54,7.30
2020,04,23,04,55,7.30
2020,04,23,04,56,7.30
2020,04,23,04,57,7.30
2020,04,23,04,58,7.30
2020,04,23,04,59,7.30
2020,04,23,05,00,7.30
2020,04,23,05,01,7.30
2020,04,23,05,02,7.30
2020,04,23,05,03,7.30
2020,04,23,05,04,7.30
2020,04,23,05,05,7.30
2020,04,23,05,06,7.30
2020,04,23,05,07,7.30
2020,04,23,05,08,7.30
2020,04,23,05,09,7.30
2020,04,23,05,10,7.40
2020,04,23,05,11,7.40
2020,04,23,05,12,7.40
2020,04,23,05,13,7.40
2020,04,23,05,14,7.40
2020,04,23,05,15,7.40
2020,04,23,05,16,7.50
2020,04,23,05,17,7.50
2020,04,23,05,18,7.50
2020,04,23,05,19,7.50
2020,04,23,05,20,7.60
2020,04,23,05,21,7.60
2020,04,23,05,22,7.60
2020,04,23,05,23,7.60
2020,04,23,05,24,7.60
2020,04,23,05,25,7.70
2020,04,23,05,26,7.70
2020,04,23,05,27,7.70
2020,04,23,05,28,7.70
2020,04,23,05,29,7.70
2020,04,23,05,30,7.80
2020,04,23,05,31,7.80
2020,04,23,05,32,7.80
2020,04,23,05,33,7.80
2020,04,23,05,34,7.80
2020,04,23,05,35,7.80
2020,04,23,05,36,7.90
2020,04,23,05,37,7.90
2020,04,23,05,38,7.90
2020,04,23,05,39,7.90
2020,04,23,05,40,7.90
2020,04,23,05,41,7.90
2020,04,23,05,42,8.00
2020,04,23,05,43,8.00
2020,04,23,05,44,8.00
2020,04,23,05,45,8.10
2020,04,23,05,46,8.10
2020,04,23,05,47,8.20
2020,04,23,05,48,8.20
2020,04,23,05,49,8.20
2020,04,23,05,50,8.30
2020,04,23,05,51,8.30
2020,04,23,05,52,8.30
2020,04,23,05,53,8.30
2020,04,23,05,54,8.30
2020,04,23,05,55,8.40
2020,04,23,05,56,8.40
2020,04,23,05,57,8.40
2020,04,23,05,58,8.40
2020,04,23,05,59,8.40
2020,04,23,06,00,8.40
2020,04,23,06,01,8.40
2020,04,23,06,02,8.40
2020,04,23,06,03,8.40
2020,04,23,06,04,8.40
2020,04,23,06,05,8.40
2020,04,23,06,06,8.40
2020,04,23,06,07,8.50
2020,04,23,06,08,8.40
2020,04,23,06,09,8.50
2020,04,23,06,10,8.50
2020,04,23,06,11,8.50
2020,04,23,06,12,8.50
2020,04,23,06,13,8.50
2020,04,23,06,14,8.50
2020,04,23,06,15,8.60
2020,04,23,06,16,8.60
2020,04,23,06,17,8.60
2020,04,23,06,18,8.60
2020,04,23,06,19,8.60
2020,04,23,06,20,8.60
2020,04,23,06,21,8.60
2020,04,23,06,22,8.60
2020,04,23,06,23,8.70
2020,04,23,06,24,8.70
2020,04,23,06,25,8.70
2020,04,23,06,26,8.70
2020,04,23,06,27,8.70
2020,04,23,06,28,8.70
2020,04,23,06,29,8.80
2020,04,23,06,30,8.80
2020,04,23,06,31,8.80
2020,04,23,06,32,8.80
2020,04,23,06,33,8.80
2020,04,23,06,34,8.80
2020,04,23,06,35,8.80
2020,04,23,06,36,8.80
2020,04,23,06,37,8.80
2020,04,23,06,38,8.80
2020,04,23,06,39,8.80
2020,04,23,06,40,8.80
2020,04,23,06,41,8.90
2020,04,23,06,42,8.90
2020,04,23,06,43,8.90
2020,04,23,06,44,8.90
2020,04,23,06,45,8.90
2020,04,23,06,46,8.90
2020,04,23,06,47,8.90
2020,04,23,06,48,8.90
2020,04,23,06,49,8.90
2020,04,23,06,50,8.90
2020,04,23,06,51,8.90
2020,04,23,06,52,8.90
2020,04,23,06,53,8.90
2020,04,23,06,54,8.90
2020,04,23,06,55,8.90
2020,04,23,06,56,8.90
2020,04,23,06,57,8.90
2020,04,23,06,58,8.90
2020,04,23,06,59,8.90
2020,04,23,07,00,8.90
2020,04,23,07,01,8.90
2020,04,23,07,02,8.90
2020,04,23,07,03,8.90
2020,04,23,07,04,8.90
2020,04,23,07,05,8.90
2020,04,23,07,06,8.90
2020,04,23,07,07,8.90
2020,04,23,07,08,9.00
2020,04,23,07,09,9.00
2020,04,23,07,10,9.00
2020,04,23,07,11,9.00
2020,04,23,07,12,9.10
2020,04,23,07,13,9.10
2020,04,23,07,14,9.10
2020,04,23,07,15,9.10
2020,04,23,07,16,9.20
2020,04,23,07,17,9.20
2020,04,23,07,18,9.20
2020,04,23,07,19,9.30
2020,04,23,07,20,9.30
2020,04,23,07,21,9.30
2020,04,23,07,22,9.40
2020,04,23,07,23,9.40
2020,04,23,07,24,9.40
2020,04,23,07,25,9.40
2020,04,23,07,26,9.50
2020,04,23,07,27,9.50
2020,04,23,07,28,9.60
2020,04,23,07,29,9.60
2020,04,23,07,30,9.60
2020,04,23,07,31,9.60
2020,04,23,07,32,9.70
2020,04,23,07,33,9.70
2020,04,23,07,34,9.70
2020,04,23,07,35,9.70
2020,04,23,07,36,9.70
2020,04,23,07,37,9.80
2020,04,23,07,38,9.80
2020,04,23,07,39,9.80
2020,04,23,07,40,9.80
2020,04,23,07,41,9.80
2020,04,23,07,42,9.90
2020,04,23,07,43,9.90
2020,04,23,07,44,10.00
2020,04,23,07,45,10.10
2020,04,23,07,46,10.10
2020,04,23,07,47,10.10
2020,04,23,07,48,10.20
2020,04,23,07,49,10.20
2020,04,23,07,50,10.20
2020,04,23,07,51,10.30
2020,04,23,07,52,10.30
2020,04,23,07,53,10.30
2020,04,23,07,54,10.30
2020,04,23,07,55,10.30
2020,04,23,07,56,10.40
2020,04,23,07,57,10.40
2020,04,23,07,58,10.40
2020,04,23,07,59,10.40
2020,04,23,08,00,10.40
2020,04,23,08,01,10.50
2020,04,23,08,02,10.50
2020,04,23,08,03,10.50
2020,04,23,08,04,10.50
2020,04,23,08,05,10.60
2020,04,23,08,06,10.60
2020,04,23,08,07,10.60
2020,04,23,08,08,10.60
2020,04,23,08,09,10.60
2020,04,23,08,10,10.70
2020,04,23,08,11,10.70
2020,04,23,08,12,10.70
2020,04,23,08,13,10.80
2020,04,23,08,14,10.80
2020,04,23,08,15,10.80
2020,04,23,08,16,10.90
2020,04,23,08,17,10.90
2020,04,23,08,18,11.00
2020,04,23,08,19,11.10
2020,04,23,08,20,11.10
2020,04,23,08,21,11.10
2020,04,23,08,22,11.20
2020,04,23,08,23,11.20
2020,04,23,08,24,11.30
2020,04,23,08,25,11.30
2020,04,23,08,26,11.40
2020,04,23,08,27,11.40
2020,04,23,08,28,11.50
2020,04,23,08,29,11.50
2020,04,23,08,30,11.60
2020,04,23,08,31,11.60
2020,04,23,08,32,11.60
2020,04,23,08,33,11.60
2020,04,23,08,34,11.70
2020,04,23,08,35,11.70
2020,04,23,08,36,11.70
2020,04,23,08,37,11.70
2020,04,23,08,38,11.80
2020,04,23,08,39,11.80
2020,04,23,08,40,11.80
2020,04,23,08,41,11.80
2020,04,23,08,42,11.90
2020,04,23,08,43,11.90
2020,04,23,08,44,12.00
2020,04,23,08,45,12.00
2020,04,23,08,46,12.10
2020,04,23,08,47,12.10
2020,04,23,08,48,12.20
2020,04,23,08,49,12.20
2020,04,23,08,50,12.20
2020,04,23,08,51,12.20
2020,04,23,08,52,12.20
2020,04,23,08,53,12.20
2020,04,23,08,54,12.20
2020,04,23,08,55,12.30
2020,04,23,08,56,12.30
2020,04,23,08,57,12.30
2020,04,23,08,58,12.30
2020,04,23,08,59,12.30
2020,04,23,09,00,12.40
2020,04,23,09,01,12.40
2020,04,23,09,02,12.40
2020,04,23,09,03,12.50
2020,04,23,09,04,12.50
2020,04,23,09,05,12.50
2020,04,23,09,06,12.60
2020,04,23,09,07,12.70
2020,04,23,09,08,12.70
2020,04,23,09,09,12.80
2020,04,23,09,10,12.90
2020,04,23,09,11,12.90
2020,04,23,09,12,12.90
2020,04,23,09,13,12.90
2020,04,23,09,14,12.90
2020,04,23,09,15,12.90
2020,04,23,09,16,13.00
2020,04,23,09,17,13.00
2020,04,23,09,18,13.00
2020,04,23,09,19,13.00
2020,04,23,09,20,13.00
2020,04,23,09,21,13.00
2020,04,23,09,22,13.00
2020,04,23,09,23,13.00
2020,04,23,09,24,13.00
2020,04,23,09,25,13.00
2020,04,23,09,26,12.90
2020,04,23,09,27,13.00
2020,04,23,09,28,13.00
2020,04,23,09,29,13.00
2020,04,23,09,30,13.00
2020,04,23,09,31,13.10
2020,04,23,09,32,13.10
2020,04,23,09,33,13.20
2020,04,23,09,34,13.30
2020,04,23,09,35,13.30
2020,04,23,09,36,13.40
2020,04,23,09,37,13.40
2020,04,23,09,38,13.50
2020,04,23,09,39,13.50
2020,04,23,09,40,13.60
2020,04,23,09,41,13.60
2020,04,23,09,42,13.60
2020,04,23,09,43,13.60
2020,04,23,09,44,13.60
2020,04,23,09,45,13.70
2020,04,23,09,46,13.70
2020,04,23,09,47,13.80
2020,04,23,09,48,13.80
2020,04,23,09,49,13.80
2020,04,23,09,50,13.80
2020,04,23,09,51,13.80
2020,04,23,09,52,13.80
2020,04,23,09,53,13.80
2020,04,23,09,54,13.80
2020,04,23,09,55,13.80
2020,04,23,09,56,13.80
2020,04,23,09,57,13.80
2020,04,23,09,58,13.80
2020,04,23,09,59,13.80
2020,04,23,10,00,13.80
2020,04,23,10,01,13.80
2020,04,23,10,02,13.80
2020,04,23,10,03,13.70
2020,04,23,10,04,13.70
2020,04,23,10,05,13.70
2020,04,23,10,06,13.80
2020,04,23,10,07,13.80
2020,04,23,10,08,13.80
2020,04,23,10,09,13.80
2020,04,23,10,10,13.90
2020,04,23,10,11,13.80
2020,04,23,10,12,13.80
2020,04,23,10,13,13.70
2020,04,23,10,14,13.60
2020,04,23,10,15,13.60
2020,04,23,10,16,13.60
2020,04,23,10,17,13.70
2020,04,23,10,18,13.70
2020,04,23,10,19,13.70
2020,04,23,10,20,13.60
2020,04,23,10,21,13.60
2020,04,23,10,22,13.60
2020,04,23,10,23,13.70
2020,04,23,10,24,13.70
2020,04,23,10,25,13.70
2020,04,23,10,26,13.80
2020,04,23,10,27,13.90
2020,04,23,10,28,13.90
2020,04,23,10,29,14.00
2020,04,23,10,30,14.00
2020,04,23,10,31,14.10
2020,04,23,10,32,14.10
2020,04,23,10,33,14.10
2020,04,23,10,34,14.20
2020,04,23,10,35,14.10
2020,04,23,10,36,14.10
2020,04,23,10,37,14.10
2020,04,23,10,38,14.10
2020,04,23,10,39,14.10
2020,04,23,10,40,14.10
2020,04,23,10,41,14.10
2020,04,23,10,42,14.20
2020,04,23,10,43,14.20
2020,04,23,10,44,14.20
2020,04,23,10,45,14.20
2020,04,23,10,46,14.20
2020,04,23,10,47,14.10
2020,04,23,10,48,14.10
2020,04,23,10,49,14.00
2020,04,23,10,50,13.90
2020,04,23,10,51,13.90
2020,04,23,10,52,13.80
2020,04,23,10,53,13.80
2020,04,23,10,54,13.80
2020,04,23,10,55,13.80
2020,04,23,10,56,13.80
2020,04,23,10,57,13.80
2020,04,23,10,58,13.80
2020,04,23,10,59,13.80
2020,04,23,11,00,13.80
2020,04,23,11,01,13.80
2020,04,23,11,02,13.90
2020,04,23,11,03,13.90
2020,04,23,11,04,13.90
2020,04,23,11,05,13.90
2020,04,23,11,06,13.90
2020,04,23,11,07,13.80
2020,04,23,11,08,13.80
2020,04,23,11,09,13.80
2020,04,23,11,10,13.80
2020,04,23,11,11,13.70
2020,04,23,11,12,13.70
2020,04,23,11,13,13.70
2020,04,23,11,14,13.70
2020,04,23,11,15,13.80
2020,04,23,11,16,13.80
2020,04,23,11,17,13.80
2020,04,23,11,18,13.70
2020,04,23,11,19,13.70
2020,04,23,11,20,13.70
2020,04,23,11,21,13.70
2020,04,23,11,22,13.70
2020,04,23,11,23,13.70
2020,04,23,11,24,13.70
2020,04,23,11,25,13.80
2020,04,23,11,26,13.80
2020,04,23,11,27,13.80
2020,04,23,11,28,13.80
2020,04,23,11,29,13.80
2020,04,23,11,30,13.80
2020,04,23,11,31,13.90
2020,04,23,11,32,13.90
2020,04,23,11,33,13.90
2020,04,23,11,34,13.90
2020,04,23,11,35,13.90
2020,04,23,11,36,13.90
2020,04,23,11,37,14.00
2020,04,23,11,38,14.00
2020,04,23,11,39,14.10
2020,04,23,11,40,14.10
2020,04,23,11,41,14.20
2020,04,23,11,42,14.20
2020,04,23,11,43,14.20
2020,04,23,11,44,14.20
2020,04,23,11,45,14.20
2020,04,23,11,46,14.20
2020,04,23,11,47,14.20
2020,04,23,11,48,14.30
2020,04,23,11,49,14.30
2020,04,23,11,50,14.30
2020,04,23,11,51,14.20
2020,04,23,11,52,14.20
2020,04,23,11,53,14.20
2020,04,23,11,54,14.10
2020,04,23,11,55,14.10
2020,04,23,11,56,14.00
2020,04,23,11,57,13.90
2020,04,23,11,58,13.90
2020,04,23,11,59,13.90
2020,04,23,12,00,13.90
2020,04,23,12,01,13.90
2020,04,23,12,02,13.90
2020,04,23,12,03,13.90
2020,04,23,12,04,13.90
2020,04,23,12,05,13.90
2020,04,23,12,06,13.90
2020,04,23,12,07,14.00
2020,04,23,12,08,14.00
2020,04,23,12,09,14.00
2020,04,23,12,10,14.10
2020,04,23,12,11,14.10
2020,04,23,12,12,14.10
2020,04,23,12,13,14.20
2020,04,23,12,14,14.30
2020,04,23,12,15,14.30
2020,04,23,12,16,14.30
2020,04,23,12,17,14.40
2020,04,23,12,18,14.40
2020,04,23,12,19,14.40
2020,04,23,12,20,14.40
2020,04,23,12,21,14.40
2020,04,23,12,22,14.30
2020,04,23,12,23,14.30
2020,04,23,12,24,14.30
2020,04,23,12,25,14.30
2020,04,23,12,26,14.30
2020,04,23,12,27,14.30
2020,04,23,12,28,14.40
2020,04,23,12,29,14.40
2020,04,23,12,30,14.50
2020,04,23,12,31,14.60
2020,04,23,12,32,14.60
2020,04,23,12,33,14.70
2020,04,23,12,34,14.80
2020,04,23,12,35,14.90
2020,04,23,12,36,14.90
2020,04,23,12,37,15.00
2020,04,23,12,38,15.10
2020,04,23,12,39,15.30
2020,04,23,12,40,15.30
2020,04,23,12,41,15.30
2020,04,23,12,42,15.30
2020,04,23,12,43,15.40
2020,04,23,12,44,15.60
2020,04,23,12,45,15.80
2020,04,23,12,46,15.90
2020,04,23,12,47,16.00
2020,04,23,12,48,16.10
2020,04,23,12,49,16.10
2020,04,23,12,50,16.10
2020,04,23,12,51,16.10
2020,04,23,12,52,16.10
2020,04,23,12,53,16.10
2020,04,23,12,54,16.10
2020,04,23,12,55,16.10
2020,04,23,12,56,16.00
2020,04,23,12,57,15.90
2020,04,23,12,58,15.80
2020,04,23,12,59,15.70
2020,04,23,13,00,15.70
2020,04,23,13,01,15.60
2020,04,23,13,02,15.50
2020,04,23,13,03,15.50
2020,04,23,13,04,15.40
2020,04,23,13,05,15.40
2020,04,23,13,06,15.40
2020,04,23,13,07,15.40
2020,04,23,13,08,15.40
2020,04,23,13,09,15.40
2020,04,23,13,10,15.40
2020,04,23,13,11,15.40
2020,04,23,13,12,15.40
2020,04,23,13,13,15.30
2020,04,23,13,14,15.30
2020,04,23,13,15,15.20
2020,04,23,13,16,15.00
2020,04,23,13,17,15.00
2020,04,23,13,18,15.00
2020,04,23,13,19,14.90
2020,04,23,13,20,14.90
2020,04,23,13,21,14.90
2020,04,23,13,22,14.80
2020,04,23,13,23,14.80
2020,04,23,13,24,14.90
2020,04,23,13,25,14.90
2020,04,23,13,26,14.90
2020,04,23,13,27,14.90
2020,04,23,13,28,14.90
2020,04,23,13,29,14.90
2020,04,23,13,30,14.90
2020,04,23,13,31,15.00
2020,04,23,13,32,14.90
2020,04,23,13,33,14.90
2020,04,23,13,34,15.00
2020,04,23,13,35,15.00
2020,04,23,13,36,15.10
2020,04,23,13,37,15.20
2020,04,23,13,38,15.20
2020,04,23,13,39,15.20
2020,04,23,13,40,15.20
2020,04,23,13,41,15.30
2020,04,23,13,42,15.30
2020,04,23,13,43,15.40
2020,04,23,13,44,15.50
2020,04,23,13,45,15.60
2020,04,23,13,46,15.70
2020,04,23,13,47,15.80
2020,04,23,13,48,15.90
2020,04,23,13,49,16.00
2020,04,23,13,50,16.10
2020,04,23,13,51,16.10
2020,04,23,13,52,16.10
2020,04,23,13,53,16.10
2020,04,23,13,54,16.10
2020,04,23,13,55,16.10
2020,04,23,13,56,16.10
2020,04,23,13,57,16.10
2020,04,23,13,58,16.20
2020,04,23,13,59,16.20
2020,04,23,14,00,16.20
2020,04,23,14,01,16.20
2020,04,23,14,02,16.30
2020,04,23,14,03,16.30
2020,04,23,14,04,16.30
2020,04,23,14,05,16.20
2020,04,23,14,06,16.20
2020,04,23,14,07,16.20
2020,04,23,14,08,16.20
2020,04,23,14,09,16.30
2020,04,23,14,10,16.30
2020,04,23,14,11,16.30
2020,04,23,14,12,16.30
2020,04,23,14,13,16.40
2020,04,23,14,14,16.50
2020,04,23,14,15,16.50
2020,04,23,14,16,16.50
2020,04,23,14,17,16.60
2020,04,23,14,18,16.60
2020,04,23,14,19,16.60
2020,04,23,14,20,16.60
2020,04,23,14,21,16.40
2020,04,23,14,22,16.30
2020,04,23,14,23,16.20
2020,04,23,14,24,16.20
2020,04,23,14,25,16.20
2020,04,23,14,26,16.30
2020,04,23,14,27,16.40
2020,04,23,14,28,16.50
2020,04,23,14,29,16.70
2020,04,23,14,30,16.80
2020,04,23,14,31,17.00
2020,04,23,14,32,17.20
2020,04,23,14,33,17.30
2020,04,23,14,34,17.40
2020,04,23,14,35,17.40
2020,04,23,14,36,17.40
2020,04,23,14,37,17.30
2020,04,23,14,38,17.30
2020,04,23,14,39,17.30
2020,04,23,14,40,17.30
2020,04,23,14,41,17.30
2020,04,23,14,42,17.20
2020,04,23,14,43,17.10
2020,04,23,14,44,17.00
2020,04,23,14,45,16.90
2020,04,23,14,46,16.90
2020,04,23,14,47,16.90
2020,04,23,14,48,16.90
2020,04,23,14,49,16.90
2020,04,23,14,50,17.00
2020,04,23,14,51,17.00
2020,04,23,14,52,17.00
2020,04,23,14,53,16.80
2020,04,23,14,54,16.70
2020,04,23,14,55,16.70
2020,04,23,14,56,16.70
2020,04,23,14,57,16.70
2020,04,23,14,58,16.80
2020,04,23,14,59,16.90
2020,04,23,15,00,16.90
2020,04,23,15,01,17.00
2020,04,23,15,02,17.00
2020,04,23,15,03,17.00
2020,04,23,15,04,17.00
2020,04,23,15,05,16.90
2020,04,23,15,06,16.90
2020,04,23,15,07,16.90
2020,04,23,15,08,16.90
2020,04,23,15,09,16.90
2020,04,23,15,10,16.90
2020,04,23,15,11,16.90
2020,04,23,15,12,16.90
2020,04,23,15,13,16.80
2020,04,23,15,14,16.80
2020,04,23,15,15,16.70
2020,04,23,15,16,16.70
2020,04,23,15,17,16.70
2020,04,23,15,18,16.70
2020,04,23,15,19,16.80
2020,04,23,15,20,16.80
2020,04,23,15,21,17.00
2020,04,23,15,22,17.10
2020,04,23,15,23,17.30
2020,04,23,15,24,17.40
2020,04,23,15,25,17.50
2020,04,23,15,26,17.60
2020,04,23,15,27,17.70
2020,04,23,15,28,17.70
2020,04,23,15,29,17.70
2020,04,23,15,30,17.60
2020,04,23,15,31,17.70
2020,04,23,15,32,17.70
2020,04,23,15,33,17.80
2020,04,23,15,34,17.80
2020,04,23,15,35,17.90
2020,04,23,15,36,17.90
2020,04,23,15,37,17.90
2020,04,23,15,38,17.90
2020,04,23,15,39,17.80
2020,04,23,15,40,17.80
2020,04,23,15,41,17.80
2020,04,23,15,42,17.90
2020,04,23,15,43,17.90
2020,04,23,15,44,17.90
2020,04,23,15,45,18.00
2020,04,23,15,46,18.10
2020,04,23,15,47,18.10
2020,04,23,15,48,18.20
2020,04,23,15,49,18.20
2020,04,23,15,50,18.30
2020,04,23,15,51,18.30
2020,04,23,15,52,18.30
2020,04,23,15,53,18.30
2020,04,23,15,54,18.30
2020,04,23,15,55,18.40
2020,04,23,15,56,18.40
2020,04,23,15,57,18.50
2020,04,23,15,58,18.50
2020,04,23,15,59,18.50
2020,04,23,16,00,18.50
2020,04,23,16,01,18.50
2020,04,23,16,02,18.60
2020,04,23,16,03,18.60
2020,04,23,16,04,18.60
2020,04,23,16,05,18.60
2020,04,23,16,06,18.50
2020,04,23,16,07,18.40
2020,04,23,16,08,18.40
2020,04,23,16,09,18.40
2020,04,23,16,10,18.30
2020,04,23,16,11,18.30
2020,04,23,16,12,18.30
2020,04,23,16,13,18.30
2020,04,23,16,14,18.20
2020,04,23,16,15,18.20
2020,04,23,16,16,18.20
2020,04,23,16,17,18.20
2020,04,23,16,18,18.30
2020,04,23,16,19,18.30
2020,04,23,16,20,18.30
2020,04,23,16,21,18.30
2020,04,23,16,22,18.30
2020,04,23,16,23,18.30
2020,04,23,16,24,18.30
2020,04,23,16,25,18.30
2020,04,23,16,26,18.30
2020,04,23,16,27,18.30
2020,04,23,16,28,18.30
2020,04,23,16,29,18.30
2020,04,23,16,30,18.20
2020,04,23,16,31,18.20
2020,04,23,16,32,18.20
2020,04,23,16,33,18.20
2020,04,23,16,34,18.30
2020,04,23,16,35,18.30
2020,04,23,16,36,18.30
2020,04,23,16,37,18.30
2020,04,23,16,38,18.30
2020,04,23,16,39,18.30
2020,04,23,16,40,18.30
2020,04,23,16,41,18.30
2020,04,23,16,42,18.30
2020,04,23,16,43,18.30
2020,04,23,16,44,18.30
2020,04,23,16,45,18.40
2020,04,23,16,46,18.40
2020,04,23,16,47,18.30
2020,04,23,16,48,18.30
2020,04,23,16,49,18.30
2020,04,23,16,50,18.20
2020,04,23,16,51,18.20
2020,04,23,16,52,18.20
2020,04,23,16,53,18.30
2020,04,23,16,54,18.30
2020,04,23,16,55,18.30
2020,04,23,16,56,18.30
2020,04,23,16,57,18.30
2020,04,23,16,58,18.30
2020,04,23,16,59,18.20
2020,04,23,17,00,18.20
2020,04,23,17,01,18.20
2020,04,23,17,02,18.20
2020,04,23,17,03,18.20
2020,04,23,17,04,18.20
2020,04,23,17,05,18.10
2020,04,23,17,06,18.10
2020,04,23,17,07,18.00
2020,04,23,17,08,18.00
2020,04,23,17,09,18.10
2020,04,23,17,10,18.10
2020,04,23,17,11,18.10
2020,04,23,17,12,18.10
2020,04,23,17,13,18.10
2020,04,23,17,14,18.20
2020,04,23,17,15,18.20
2020,04,23,17,16,18.20
2020,04,23,17,17,18.20
2020,04,23,17,18,18.20
2020,04,23,17,19,18.10
2020,04,23,17,20,18.10
2020,04,23,17,21,18.00
2020,04,23,17,22,18.00
2020,04,23,17,23,17.90
2020,04,23,17,24,17.90
2020,04,23,17,25,17.90
2020,04,23,17,26,17.90
2020,04,23,17,27,17.80
2020,04,23,17,28,17.80
2020,04,23,17,29,17.80
2020,04,23,17,30,17.80
2020,04,23,17,31,17.80
2020,04,23,17,32,17.80
2020,04,23,17,33,17.80
2020,04,23,17,34,17.80
2020,04,23,17,35,17.80
2020,04,23,17,36,17.80
2020,04,23,17,37,17.80
2020,04,23,17,38,17.90
2020,04,23,17,39,17.90